Temp
21 21 21 21 21 22 22 22 22 21 21 21 21 20 20 20 19 19 19 19 19 19 18 18 18 17 17 16 16 16 16 16 15 15 15 15 15 15 15 15 15 14 14 14 14 15 15 15 15 15 15 15 15 15 15 15 15 15 15 15 15 15 15
20 21 21 21 21 22 22 22 22 21 21 21 21 20 20 20 19 19 19 19 19 18 18 18 18 17 17 16 16 15 15 15 15 15 15 15 15 15 15 15 15 15 14 14 14 14 15 15 15 15 15 15 15 15 15 15 15 15 15 15 15 15 15
21 21 21 21 21 22 22 22 21 21 21 21 21 20 20 20 19 19 19 18 18 18 18 18 17 17 16 16 15 15 15 14 15 15 15 15 15 15 15 15 15 15 14 14 14 14 14 14 15 15 15 15 15 15 15 15 15 15 15 15 15 15 15
21 21 22 21 21 21 21 22 21 21 21 21 20 20 20 19 19 19 19 18 18 18 18 17 17 16 16 15 15 15 14 14 14 15 15 15 15 15 15 15 14 14 14 14 14 14 14 14 14 14 14 15 15 14 14 15 15 15 14 14 14 14 15
21 21 21 21 21 21 21 21 21 21 21 21 20 20 20 19 19 19 19 18 18 18 17 17 16 16 15 15 14 14 14 14 14 14 15 15 15 15 14 14 14 14 14 14 14 14 14 14 14 14 14 14 14 14 14 14 14 14 14 14 14 14 14
21 21 21 21 21 21 21 21 21 21 21 21 20 20 19 19 19 19 18 18 18 17 17 17 16 15 15 14 14 14 14 14 14 14 14 14 15 14 14 14 14 14 14 14 13 13 13 13 13 13 13 13 13 13 13 13 13 13 13 13 13 13 14
21 22 21 22 21 21 21 21 21 21 21 20 20 19 19 19 19 19 18 18 18 17 16 16 15 15 15 14 14 14 14 14 14 14 14 14 14 14 14 14 14 13 14 13 13 13 13 13 13 13 13 13 13 13 13 13 13 13 13 13 13 13 13
22 22 22 22 22 21 21 21 21 21 21 20 20 19 19 19 19 19 18 18 17 17 16 16 15 15 15 15 14 14 14 14 14 14 14 14 14 14 14 14 13 13 13 13 13 13 13 13 13 13 13 13 13 13 13 13 13 13 12 12 12 12 13
21 21 22 22 22 21 21 21 21 21 21 20 19 19 19 19 19 18 18 18 17 17 16 16 16 15 15 15 14 14 14 14 14 14 14 14 14 14 14 14 13 13 13 13 13 13 13 13 13 13 13 13 13 13 13 13 13 12 12 12 12 12 12
20 20 21 21 21 21 21 21 21 21 20 20 19 19 19 19 19 18 18 18 17 17 17 16 16 16 15 15 14 14 14 14 14 14 14 14 14 14 14 14 13 13 13 13 13 13 13 13 13 13 13 13 13 13 13 13 12 12 12 12 12 12 12
20 20 21 21 21 21 21 21 21 21 20 19 19 19 19 19 18 18 18 18 17 17 17 17 16 16 15 15 14 14 14 14 14 14 14 14 14 14 14 14 14 14 14 13 14 13 13 13 13 13 13 13 13 13 13 13 12 12 12 12 12 12 12
19 20 20 21 21 21 21 21 21 20 20 19 19 19 19 19 18 18 18 17 17 17 17 17 16 15 15 15 14 15 14 14 14 14 14 14 14 14 14 14 14 14 14 14 14 14 14 14 13 13 14 13 13 13 13 13 13 13 12 12 12 12 12
19 20 21 21 21 21 21 21 21 20 20 19 19 19 19 19 19 18 18 17 17 17 17 16 16 15 15 15 15 15 14 14 14 14 14 14 14 14 14 14 14 14 14 14 14 14 14 14 14 14 14 14 13 13 13 13 13 13 12 12 12 12 12
19 20 21 21 21 21 21 21 21 20 19 19 19 19 19 19 19 18 18 17 17 17 16 16 15 15 15 15 15 14 14 14 14 14 14 14 14 14 14 14 14 14 14 14 14 14 14 14 14 14 14 14 13 13 13 13 13 12 12 12 12 12 12
19 20 21 21 21 21 21 21 20 20 19 19 19 19 19 19 18 18 17 17 17 17 16 15 15 15 15 15 15 14 14 14 14 14 14 14 14 14 14 14 14 14 14 14 14 14 14 14 14 14 14 14 13 13 13 13 13 12 12 11 12 12 12
19 20 21 21 21 21 21 21 20 20 20 20 20 20 20 19 18 18 17 17 17 17 16 15 15 15 15 15 15 14 14 14 14 14 14 14 14 14 14 14 14 14 14 14 14 14 14 14 14 14 14 14 14 13 13 13 13 12 11 11 11 12 12
20 20 21 21 21 21 21 21 20 20 20 20 20 20 19 19 18 17 17 17 17 17 16 16 16 15 15 15 14 14 14 14 14 14 14 14 14 14 14 14 14 14 14 14 14 14 14 14 14 14 14 14 14 14 13 13 12 12 11 11 12 12 12
20 21 21 21 21 21 21 20 20 20 20 20 20 20 19 18 18 18 17 17 17 17 16 16 16 16 15 15 14 14 14 14 14 14 14 14 14 14 14 14 14 14 14 14 14 14 14 14 14 14 14 14 14 14 13 12 12 11 11 11 12 12 12
20 21 22 22 22 21 21 20 20 20 20 20 20 20 19 18 18 18 17 17 17 17 17 16 16 16 15 15 14 14 14 14 14 14 14 14 14 14 14 14 14 14 14 14 14 14 14 14 14 14 14 14 14 13 13 12 12 11 12 12 11 11 12
21 22 22 22 22 21 21 21 20 20 20 20 20 20 19 18 18 18 17 17 17 17 17 16 16 16 15 15 14 14 14 14 14 14 14 14 14 14 14 14 14 14 14 14 14 14 14 14 14 14 14 14 14 13 12 12 12 12 12 12 11 11 11
22 22 22 22 22 21 21 21 20 20 20 20 20 20 19 18 18 17 17 17 17 17 17 16 16 16 15 15 15 14 14 14 14 14 14 14 14 14 14 14 14 14 14 14 14 14 14 14 14 14 14 14 14 13 13 12 12 12 12 12 11 11 11
22 23 23 22 22 21 21 21 21 20 20 20 20 19 19 18 18 17 17 17 17 17 17 16 16 16 15 15 15 15 14 14 14 14 14 14 14 14 14 14 14 14 14 14 14 14 14 14 14 14 14 14 14 13 13 12 12 12 12 12 11 11 11
23 23 23 22 22 22 21 21 21 21 20 20 20 19 19 18 18 18 17 17 17 17 17 16 16 16 15 15 15 15 14 14 14 14 14 14 14 14 14 14 14 14 14 14 14 14 14 14 14 13 13 14 13 13 12 12 12 12 12 12 11 11 11
23 23 23 22 22 22 21 21 21 20 20 20 20 19 19 18 18 18 17 17 17 17 16 16 16 16 16 15 15 15 14 14 14 14 14 14 14 14 14 14 14 14 14 14 14 14 14 14 14 13 13 13 13 13 12 12 12 12 12 12 12 11 11
23 23 22 22 22 21 21 21 21 20 20 20 19 19 19 18 18 18 17 17 17 17 16 16 16 16 15 15 15 15 15 14 14 14 14 14 14 14 14 14 14 14 14 14 14 14 13 13 13 13 13 13 13 13 12 12 12 12 12 12 12 12 11
22 22 22 22 22 21 21 21 20 20 20 20 20 19 19 18 18 18 17 17 17 17 16 16 16 16 15 15 15 15 15 15 14 14 14 14 14 14 14 14 14 14 14 14 14 13 13 13 13 13 13 13 13 13 13 12 12 12 12 12 12 12 11
22 22 22 22 22 21 21 21 20 20 20 20 20 19 19 18 18 18 17 17 17 17 16 16 16 15 16 15 15 15 15 15 14 14 14 14 14 14 14 14 14 14 14 14 14 13 13 13 13 13 13 13 13 13 13 12 12 12 12 12 12 12 12
22 22 22 22 21 21 21 21 21 20 20 20 20 19 19 18 18 17 17 17 17 17 16 16 15 15 16 15 15 15 15 15 15 14 14 14 14 14 14 14 14 14 13 13 13 13 13 13 13 13 13 13 13 13 13 12 12 12 12 12 12 11 11
22 22 22 21 21 21 21 21 20 20 20 20 19 19 19 18 18 17 17 17 17 16 16 16 15 15 15 15 15 15 15 15 15 15 14 14 14 14 14 14 14 13 13 13 13 13 13 13 13 13 13 13 13 13 12 12 12 12 12 12 12 12 11
22 22 22 21 21 21 21 21 20 20 20 20 19 19 18 18 17 17 17 17 17 16 16 16 15 15 15 15 15 15 15 15 15 15 15 14 14 14 14 14 13 13 13 13 13 13 13 13 13 13 13 13 13 13 13 12 12 12 12 12 12 12 12
22 21 21 21 21 21 20 20 20 20 20 19 19 18 18 18 17 17 16 17 16 16 16 16 15 15 15 15 15 15 15 15 14 14 15 14 14 13 13 13 13 13 13 13 13 13 13 13 13 13 13 13 13 13 13 12 12 12 12 12 12 12 12
21 21 21 21 21 20 20 20 20 19 19 19 19 18 18 17 17 16 16 16 16 16 16 16 15 15 15 15 15 15 15 15 14 14 14 14 13 13 13 13 13 13 13 13 13 13 13 13 13 13 13 13 13 13 13 13 12 12 12 12 12 12 12
21 21 21 21 20 20 20 20 19 19 19 19 18 18 17 17 16 16 16 16 16 16 16 15 15 14 14 14 15 15 15 14 14 14 14 13 13 12 13 13 13 13 13 13 13 13 13 13 13 13 13 13 13 13 13 13 12 12 12 12 12 12 12
21 21 20 20 20 20 20 19 19 19 19 18 18 18 17 17 16 16 16 16 15 15 15 15 14 14 14 14 14 14 14 14 14 14 13 13 13 12 12 12 12 12 13 13 13 13 13 12 12 12 12 13 13 13 13 13 13 13 12 12 12 12 12
20 20 20 20 20 19 19 19 18 18 18 18 18 17 17 16 16 16 16 15 15 15 15 14 14 14 14 14 14 14 14 13 13 13 13 12 12 12 12 12 12 12 12 12 12 13 12 12 12 12 12 12 12 13 13 13 13 13 13 12 12 12 11
19 19 19 19 19 19 19 18 18 18 18 18 17 17 16 16 16 15 15 15 15 14 14 14 14 14 14 14 13 13 13 13 13 12 12 12 12 12 12 12 12 12 12 12 12 12 12 12 12 12 12 12 12 12 13 13 13 13 13 13 12 12 12
19 19 19 19 19 19 18 18 18 18 17 17 17 16 16 15 15 15 15 14 14 14 14 14 14 13 13 13 13 13 12 12 12 12 12 12 12 12 12 12 12 12 12 12 12 12 12 12 12 11 12 12 12 12 12 12 13 13 13 13 12 12 12
19 18 18 18 18 18 18 17 17 17 17 16 16 15 15 15 15 14 14 14 14 14 14 14 13 13 13 13 13 13 12 12 12 11 11 11 11 11 11 12 12 12 12 12 12 12 11 11 11 11 11 11 12 12 12 12 12 12 13 12 12 12 12
Height
1531 1533 1535 1536 1538 1539 1540 1543 1544 1545 1546 1547 1548 1549 1549 1550 1549 1550 1549 1549 1548 1548 1547 1546 1545 1544 1543 1543 1541 1540 1539 1537 1536 1535 1534 1533 1531 1530 1529 1527 1525 1524 1522 1521 1520 1519 1518 1518 1517 1516 1515 1515 1514 1513 1512 1512 1512 1512 1512 1512 1512 1511 1512
1529 1530 1533 1534 1536 1538 1540 1542 1543 1544 1545 1546 1547 1548 1548 1548 1548 1548 1548 1548 1547 1546 1546 1545 1544 1543 1542 1541 1540 1539 1537 1536 1535 1534 1533 1532 1531 1529 1528 1526 1524 1522 1521 1520 1518 1517 1516 1515 1515 1514 1513 1512 1511 1509 1508 1507 1507 1507 1507 1507 1507 1507 1508
1526 1528 1530 1532 1534 1536 1539 1541 1542 1543 1544 1545 1546 1547 1547 1547 1547 1547 1547 1546 1546 1545 1544 1544 1543 1542 1541 1540 1539 1537 1536 1535 1534 1533 1532 1530 1529 1528 1526 1525 1523 1521 1520 1518 1517 1516 1514 1513 1512 1511 1510 1509 1508 1506 1505 1503 1502 1502 1502 1502 1502 1502 1502
1523 1525 1527 1530 1532 1535 1537 1539 1541 1542 1543 1544 1545 1545 1546 1546 1546 1546 1546 1545 1544 1543 1543 1542 1542 1541 1540 1538 1537 1536 1534 1533 1532 1532 1531 1529 1528 1526 1524 1523 1521 1520 1519 1517 1516 1514 1513 1512 1510 1509 1508 1507 1505 1504 1502 1501 1499 1498 1497 1497 1497 1497 1497
1521 1523 1525 1528 1530 1533 1535 1537 1539 1540 1541 1543 1543 1544 1545 1545 1545 1545 1544 1543 1542 1542 1541 1541 1540 1539 1538 1537 1536 1534 1533 1532 1531 1530 1529 1528 1526 1525 1523 1521 1520 1518 1517 1516 1515 1513 1512 1510 1509 1507 1506 1504 1503 1501 1500 1499 1497 1495 1494 1493 1493 1493 1492
1517 1520 1521 1524 1527 1531 1533 1536 1537 1538 1540 1541 1542 1543 1543 1543 1544 1543 1542 1542 1541 1540 1540 1539 1539 1537 1537 1535 1534 1533 1532 1531 1530 1529 1528 1526 1525 1523 1522 1520 1519 1517 1516 1515 1514 1512 1511 1509 1508 1506 1505 1503 1501 1500 1498 1497 1495 1494 1493 1491 1490 1489 1488
1513 1516 1518 1522 1526 1529 1532 1534 1536 1537 1539 1540 1541 1542 1542 1542 1542 1541 1541 1540 1539 1539 1538 1538 1537 1536 1535 1534 1533 1532 1531 1530 1529 1528 1527 1525 1524 1522 1520 1519 1518 1516 1515 1514 1513 1512 1510 1509 1507 1505 1504 1502 1500 1498 1496 1495 1494 1492 1491 1489 1488 1486 1485
1511 1513 1516 1520 1524 1528 1531 1532 1534 1536 1537 1538 1539 1540 1540 1540 1540 1539 1539 1538 1538 1537 1537 1536 1535 1534 1533 1532 1531 1531 1530 1529 1528 1527 1526 1525 1523 1521 1519 1518 1516 1515 1514 1513 1512 1511 1509 1508 1506 1505 1503 1500 1498 1496 1494 1493 1491 1490 1488 1487 1485 1483 1482
1510 1512 1515 1520 1523 1526 1529 1530 1533 1534 1535 1537 1537 1538 1539 1538 1538 1537 1537 1537 1536 1536 1535 1534 1534 1533 1532 1531 1530 1530 1529 1528 1527 1526 1525 1524 1522 1520 1518 1517 1515 1514 1513 1512 1511 1510 1508 1507 1505 1503 1501 1499 1497 1495 1493 1491 1489 1488 1486 1484 1482 1480 1478
1508 1511 1514 1519 1522 1525 1528 1529 1531 1532 1533 1535 1536 1536 1537 1536 1536 1536 1535 1535 1535 1534 1533 1532 1532 1531 1530 1530 1529 1528 1527 1527 1526 1525 1523 1522 1521 1519 1517 1516 1514 1513 1512 1511 1509 1508 1507 1505 1504 1502 1499 1497 1495 1493 1492 1489 1487 1485 1483 1481 1478 1476 1474
1506 1510 1513 1517 1521 1524 1526 1527 1529 1530 1532 1533 1534 1534 1535 1534 1534 1534 1534 1534 1533 1532 1532 1531 1530 1530 1529 1528 1527 1526 1526 1525 1524 1523 1522 1521 1519 1518 1516 1515 1513 1512 1511 1509 1508 1507 1505 1504 1502 1500 1498 1495 1493 1492 1490 1488 1486 1483 1481 1478 1476 1472 1470
1504 1508 1511 1515 1519 1521 1524 1525 1527 1528 1530 1531 1532 1533 1533 1533 1532 1532 1532 1532 1531 1531 1530 1529 1529 1528 1527 1527 1526 1525 1524 1523 1523 1522 1520 1519 1518 1516 1515 1513 1512 1511 1510 1508 1507 1505 1504 1502 1500 1498 1496 1494 1492 1490 1488 1486 1484 1482 1479 1476 1473 1469 1465
1503 1506 1510 1514 1517 1519 1522 1523 1525 1527 1528 1529 1530 1531 1531 1531 1531 1531 1531 1530 1530 1529 1529 1528 1528 1527 1526 1525 1524 1524 1523 1522 1521 1520 1519 1518 1516 1515 1513 1512 1511 1509 1508 1507 1505 1503 1502 1500 1498 1496 1494 1492 1490 1488 1486 1484 1482 1480 1477 1474 1470 1466 1461
1502 1505 1509 1512 1515 1517 1520 1521 1523 1525 1526 1527 1529 1529 1529 1529 1529 1529 1529 1529 1529 1528 1527 1527 1526 1525 1525 1524 1523 1523 1522 1521 1520 1519 1518 1516 1514 1513 1512 1510 1509 1508 1506 1505 1503 1502 1500 1498 1496 1494 1492 1491 1488 1486 1484 1482 1480 1477 1474 1471 1467 1463 1458
1500 1504 1507 1510 1513 1515 1517 1520 1522 1523 1524 1526 1527 1527 1527 1528 1528 1528 1527 1527 1527 1526 1526 1525 1525 1524 1524 1523 1522 1521 1521 1520 1519 1517 1516 1514 1513 1511 1510 1508 1507 1506 1504 1503 1502 1500 1499 1497 1495 1493 1491 1489 1487 1485 1483 1481 1478 1475 1472 1469 1465 1460 1455
1497 1501 1504 1507 1511 1513 1515 1518 1520 1521 1523 1524 1525 1525 1526 1526 1526 1526 1526 1525 1525 1525 1524 1524 1523 1523 1522 1521 1521 1520 1519 1518 1517 1516 1514 1513 1511 1509 1508 1506 1505 1504 1502 1501 1500 1499 1497 1495 1493 1491 1490 1488 1485 1484 1482 1480 1477 1474 1470 1467 1463 1458 1452
1495 1499 1502 1506 1509 1512 1514 1517 1518 1520 1521 1522 1523 1524 1525 1525 1525 1524 1524 1524 1523 1523 1522 1522 1521 1521 1520 1520 1519 1518 1518 1517 1515 1514 1513 1511 1510 1508 1506 1505 1503 1502 1500 1499 1498 1497 1495 1493 1491 1490 1488 1486 1483 1482 1480 1478 1475 1472 1469 1466 1462 1457 1451
1493 1497 1501 1505 1507 1510 1512 1514 1516 1518 1519 1520 1521 1522 1523 1523 1523 1523 1522 1522 1522 1521 1521 1520 1520 1519 1518 1518 1517 1517 1516 1515 1514 1512 1511 1510 1508 1507 1505 1503 1501 1500 1498 1497 1496 1495 1493 1492 1490 1488 1486 1484 1481 1479 1478 1476 1473 1470 1468 1464 1461 1457 1452
1491 1495 1499 1503 1505 1507 1510 1512 1514 1516 1517 1518 1520 1521 1521 1521 1521 1521 1521 1520 1520 1520 1519 1519 1518 1517 1517 1516 1516 1515 1514 1513 1512 1511 1509 1508 1506 1505 1503 1502 1500 1498 1496 1495 1494 1493 1491 1490 1488 1486 1484 1482 1480 1477 1476 1474 1471 1468 1466 1463 1460 1457 1452
1490 1494 1498 1500 1503 1506 1509 1511 1513 1515 1516 1517 1518 1519 1519 1519 1519 1519 1519 1519 1519 1518 1518 1517 1516 1516 1515 1514 1514 1514 1513 1512 1510 1509 1508 1506 1504 1503 1501 1500 1498 1496 1495 1493 1492 1491 1490 1488 1487 1485 1483 1481 1479 1476 1474 1472 1470 1467 1465 1462 1459 1456 1452
1489 1493 1496 1499 1502 1505 1507 1509 1511 1512 1514 1516 1517 1517 1517 1517 1517 1517 1517 1517 1517 1517 1516 1516 1515 1514 1513 1513 1512 1512 1511 1510 1509 1507 1506 1504 1503 1501 1499 1498 1497 1495 1493 1492 1490 1489 1488 1486 1485 1484 1482 1480 1478 1476 1474 1472 1470 1467 1464 1461 1458 1455 1451
1489 1492 1495 1497 1500 1503 1505 1507 1509 1511 1512 1514 1515 1515 1515 1515 1515 1515 1515 1515 1515 1515 1514 1514 1513 1512 1511 1511 1510 1510 1509 1508 1507 1505 1504 1502 1501 1499 1498 1496 1495 1494 1492 1490 1489 1488 1486 1485 1484 1482 1480 1479 1477 1475 1473 1471 1469 1466 1464 1461 1458 1454 1451
1489 1492 1494 1497 1500 1502 1504 1506 1507 1509 1511 1512 1513 1513 1513 1513 1513 1513 1513 1513 1513 1513 1512 1512 1511 1510 1509 1509 1508 1508 1507 1506 1505 1504 1502 1501 1499 1497 1496 1495 1493 1492 1491 1489 1488 1487 1485 1484 1482 1481 1479 1477 1476 1474 1472 1470 1468 1465 1463 1460 1457 1454 1450
1489 1492 1494 1497 1499 1501 1503 1505 1506 1507 1509 1509 1510 1510 1510 1510 1511 1511 1511 1511 1510 1510 1510 1509 1508 1507 1507 1506 1506 1505 1505 1504 1503 1502 1500 1499 1497 1496 1494 1493 1491 1490 1489 1488 1486 1485 1484 1482 1481 1479 1477 1476 1474 1472 1470 1469 1467 1464 1462 1459 1457 1453 1450
1489 1492 1494 1496 1498 1500 1501 1503 1504 1505 1506 1507 1507 1507 1507 1508 1508 1508 1508 1508 1508 1508 1507 1506 1506 1505 1505 1504 1503 1503 1503 1502 1501 1500 1499 1497 1495 1494 1493 1491 1490 1489 1488 1487 1485 1484 1483 1481 1479 1478 1476 1474 1472 1471 1469 1467 1465 1463 1461 1459 1456 1453 1450
1489 1491 1493 1494 1497 1498 1499 1501 1502 1502 1503 1503 1503 1504 1504 1505 1506 1506 1506 1506 1506 1506 1505 1505 1504 1503 1502 1502 1501 1501 1501 1500 1500 1499 1497 1495 1494 1493 1492 1490 1489 1487 1486 1485 1484 1482 1481 1480 1478 1476 1475 1473 1471 1469 1467 1466 1464 1462 1460 1458 1456 1453 1450
1488 1490 1491 1493 1495 1496 1497 1498 1498 1499 1499 1499 1500 1501 1502 1503 1503 1504 1504 1504 1504 1503 1503 1503 1502 1501 1501 1500 1499 1499 1499 1498 1498 1497 1496 1494 1492 1491 1490 1489 1487 1486 1485 1484 1482 1481 1480 1478 1477 1475 1474 1472 1470 1468 1466 1464 1462 1461 1459 1457 1455 1453 1450
1487 1488 1490 1491 1493 1494 1494 1495 1495 1495 1496 1496 1498 1499 1499 1500 1501 1502 1502 1502 1502 1501 1501 1501 1500 1499 1498 1498 1497 1497 1497 1496 1495 1495 1494 1493 1491 1489 1489 1488 1486 1485 1483 1482 1481 1480 1479 1477 1476 1474 1473 1471 1469 1467 1465 1463 1462 1460 1458 1456 1454 1452 1450
1485 1487 1488 1489 1490 1491 1491 1492 1492 1492 1493 1494 1495 1496 1497 1498 1499 1499 1500 1500 1500 1500 1499 1498 1497 1497 1496 1496 1495 1495 1494 1494 1493 1492 1492 1491 1489 1488 1487 1486 1485 1484 1482 1481 1480 1479 1477 1476 1474 1473 1471 1470 1469 1467 1465 1463 1461 1459 1458 1456 1454 1452 1450
1484 1485 1486 1487 1487 1488 1488 1489 1489 1490 1491 1492 1493 1494 1495 1496 1496 1497 1497 1498 1498 1497 1496 1495 1495 1494 1494 1493 1493 1492 1492 1491 1490 1490 1489 1488 1487 1487 1486 1485 1484 1482 1481 1480 1479 1477 1476 1474 1473 1472 1470 1469 1468 1466 1464 1462 1460 1459 1457 1456 1454 1452 1450
1484 1484 1485 1485 1486 1486 1486 1487 1487 1488 1489 1490 1491 1492 1492 1493 1494 1495 1495 1495 1495 1495 1494 1493 1493 1492 1492 1491 1491 1490 1489 1489 1488 1488 1487 1486 1486 1486 1486 1484 1483 1481 1480 1479 1478 1476 1475 1473 1472 1471 1469 1468 1467 1465 1464 1462 1460 1459 1457 1456 1454 1452 1450
1483 1483 1483 1484 1484 1484 1484 1485 1485 1486 1487 1488 1489 1490 1490 1491 1492 1492 1493 1493 1493 1492 1491 1491 1490 1490 1490 1489 1489 1488 1487 1486 1486 1486 1486 1485 1484 1484 1484 1483 1482 1480 1479 1477 1476 1475 1474 1472 1471 1470 1468 1467 1466 1464 1463 1461 1460 1458 1457 1456 1454 1452 1450
1482 1482 1482 1483 1483 1483 1483 1483 1483 1484 1485 1486 1487 1487 1488 1489 1490 1490 1490 1490 1490 1490 1489 1489 1488 1488 1487 1487 1486 1486 1485 1484 1484 1484 1483 1482 1482 1482 1481 1480 1480 1479 1478 1476 1475 1474 1473 1471 1470 1469 1467 1466 1465 1463 1462 1461 1459 1458 1457 1456 1454 1452 1451
1480 1480 1481 1481 1481 1481 1481 1481 1481 1482 1483 1484 1485 1485 1486 1487 1487 1488 1488 1487 1487 1487 1487 1486 1486 1485 1485 1484 1483 1483 1482 1482 1482 1481 1481 1480 1480 1480 1480 1478 1477 1477 1476 1475 1474 1472 1471 1470 1469 1468 1466 1465 1464 1462 1461 1460 1459 1457 1456 1455 1453 1452 1450
1478 1479 1479 1478 1478 1479 1479 1479 1480 1480 1481 1482 1483 1483 1484 1485 1485 1486 1485 1485 1485 1484 1484 1484 1484 1483 1482 1481 1481 1480 1480 1480 1480 1479 1479 1478 1478 1479 1478 1476 1475 1475 1474 1473 1472 1471 1470 1469 1468 1467 1466 1464 1463 1462 1460 1459 1458 1457 1455 1454 1453 1452 1450
1476 1476 1476 1476 1477 1477 1477 1477 1477 1478 1479 1480 1480 1481 1482 1483 1483 1483 1483 1483 1482 1482 1482 1482 1481 1481 1480 1479 1478 1478 1477 1477 1477 1477 1477 1477 1476 1476 1476 1474 1473 1473 1472 1471 1470 1469 1468 1467 1466 1466 1465 1464 1463 1461 1460 1458 1457 1456 1455 1453 1452 1451 1450
1475 1474 1474 1475 1475 1475 1475 1475 1475 1476 1477 1477 1478 1479 1480 1480 1481 1480 1480 1480 1480 1479 1479 1479 1478 1478 1477 1476 1475 1475 1474 1474 1474 1473 1474 1474 1473 1473 1473 1472 1471 1470 1470 1469 1468 1468 1467 1466 1465 1464 1464 1463 1462 1461 1459 1458 1456 1455 1454 1453 1451 1450 1449
1473 1473 1473 1473 1473 1474 1474 1474 1474 1475 1475 1475 1476 1477 1477 1478 1478 1478 1478 1478 1477 1477 1477 1476 1475 1475 1475 1474 1473 1472 1472 1471 1471 1470 1470 1470 1470 1470 1470 1469 1468 1468 1468 1467 1467 1466 1466 1465 1464 1463 1463 1462 1461 1459 1458 1457 1455 1454 1453 1452 1451 1450 1449
Wind_Speed
32 32 30 28 27 26 24 21 19 16 12 11 11 11 11 11 10 10 12 15 17 17 17 18 17 17 16 16 16 18 18 17 16 16 17 18 18 19 20 20 20 19 18 17 17 17 17 17 18 19 21 22 24 26 27 27 25 25 24 23 24 24 24
33 34 32 31 29 27 24 21 18 16 13 12 13 13 12 10 10 11 13 16 18 18 18 18 18 18 17 17 17 17 17 15 15 15 16 17 18 18 19 19 20 20 19 19 18 18 17 18 18 19 21 23 24 26 27 28 28 27 27 28 29 29 29
35 36 35 32 30 27 24 21 19 17 15 13 13 13 11 10 10 12 14 17 18 18 18 19 19 18 17 17 17 17 16 15 15 15 16 17 18 19 19 19 19 19 19 19 18 18 18 18 18 18 20 21 23 25 26 28 29 30 29 30 31 32 32
37 37 36 33 31 28 24 21 19 18 16 14 14 13 11 10 11 13 16 17 18 18 18 19 19 18 17 16 17 17 16 16 16 16 16 18 19 19 20 20 19 18 18 18 18 19 19 19 19 19 19 20 22 23 24 26 28 30 30 30 31 33 34
37 37 37 35 32 29 25 22 20 19 16 14 14 13 11 11 12 14 16 17 17 18 18 19 20 18 16 15 16 16 16 16 17 17 17 19 19 20 20 20 19 18 17 17 17 18 18 20 21 21 21 20 21 21 21 23 24 26 28 28 28 30 33
38 39 39 37 33 30 26 23 21 19 16 15 14 13 12 11 12 15 15 17 17 17 17 19 19 17 15 15 15 15 15 16 17 17 19 20 20 21 20 20 18 17 17 17 17 18 19 20 21 21 22 22 21 21 20 20 21 23 24 25 26 28 30
40 41 40 37 34 29 26 23 21 19 17 16 15 15 13 11 13 14 15 16 15 16 17 18 18 16 14 14 14 13 14 15 17 18 19 20 21 22 20 19 17 17 18 18 18 18 19 19 20 20 22 22 22 22 21 21 21 22 23 24 24 26 27
40 41 40 36 33 28 25 24 21 18 17 17 17 17 13 11 13 14 14 15 15 16 17 18 17 15 13 13 12 12 13 15 16 17 19 20 22 21 19 18 17 16 17 18 17 17 17 18 19 20 22 23 23 22 22 23 24 24 24 25 25 25 26
38 38 37 34 31 27 25 24 20 18 17 18 19 16 12 12 13 14 13 14 15 16 17 18 17 15 13 13 11 11 12 14 16 17 18 19 20 20 19 17 16 16 17 17 16 16 16 18 19 20 22 23 24 23 23 25 26 26 26 26 26 26 27
34 34 33 32 29 26 26 24 20 18 18 20 18 14 11 12 13 13 13 14 16 17 18 18 17 15 13 12 10 10 11 13 15 16 17 19 19 19 19 17 16 16 17 19 18 17 17 18 20 21 22 22 23 24 25 26 29 29 29 28 27 27 27
32 32 31 30 28 27 26 23 19 18 19 19 16 12 11 12 12 13 13 14 15 17 18 18 17 14 12 11 10 11 11 12 14 15 16 18 19 20 20 18 17 17 19 20 21 20 18 18 19 21 22 21 21 23 24 27 30 30 29 28 28 28 27
31 31 31 31 29 28 26 21 19 18 19 18 14 11 10 11 12 12 13 14 15 16 18 17 15 13 12 11 11 10 11 12 14 15 16 18 19 20 20 19 18 19 20 21 21 20 18 17 19 22 23 21 20 21 23 24 27 28 29 30 31 31 29
31 31 32 32 30 28 24 21 19 19 19 17 12 10 9 10 12 13 14 14 14 16 17 15 13 12 11 11 11 10 10 12 13 14 16 18 19 19 19 19 19 19 20 20 20 18 17 17 18 21 22 20 20 22 23 24 25 27 29 32 33 33 31
30 31 32 32 30 27 24 21 20 20 19 15 11 10 9 10 12 13 13 13 13 15 15 13 11 11 11 11 10 10 10 11 12 14 16 18 19 20 19 19 19 19 19 19 19 17 17 17 18 19 19 19 20 22 23 25 26 28 29 32 34 34 33
31 33 34 33 30 27 24 22 21 21 18 14 11 9 9 12 13 13 13 12 12 14 14 12 10 9 9 9 9 9 9 10 12 14 16 18 19 19 19 19 19 19 18 18 18 17 17 17 17 18 18 18 19 21 23 25 27 27 28 31 34 36 35
34 35 36 34 30 27 24 22 22 20 17 14 10 8 10 13 13 12 12 11 12 13 13 12 11 9 9 8 7 8 9 10 12 14 16 17 18 18 19 19 19 19 18 17 16 16 17 17 16 17 17 18 19 19 21 23 24 24 26 30 33 35 34
35 37 36 33 30 27 24 23 22 20 17 13 9 8 12 12 12 11 11 11 11 11 11 12 12 11 9 8 8 8 10 11 13 15 15 16 17 18 19 19 19 19 17 16 16 16 17 17 16 16 17 17 19 19 19 21 20 20 24 29 31 33 33
37 38 36 33 30 27 25 24 23 20 17 11 8 10 12 11 10 10 10 10 10 9 11 13 14 12 11 9 9 10 12 13 14 15 16 17 18 18 19 19 20 20 18 16 16 17 17 17 17 17 16 17 19 19 20 20 19 20 24 27 29 31 33
39 38 36 33 31 28 26 24 23 19 14 9 9 10 11 10 9 9 8 8 8 9 11 13 14 14 13 11 11 13 14 15 16 16 17 18 19 19 19 20 21 20 18 16 16 16 16 17 17 16 16 16 18 20 20 21 20 21 24 26 27 29 32
39 37 34 33 31 28 25 23 22 18 12 9 10 10 10 10 9 8 7 7 8 9 11 13 14 15 15 14 14 15 16 16 17 17 18 19 20 20 19 20 20 18 16 16 16 15 16 16 15 15 15 16 17 19 20 21 22 22 24 25 26 28 31
38 35 34 33 30 26 24 23 21 16 12 10 10 10 10 9 7 7 8 7 8 9 11 13 15 16 16 16 16 16 17 17 17 17 19 20 20 18 17 18 18 16 15 15 15 15 15 14 14 15 16 17 18 17 17 19 21 22 23 24 26 28 30
34 32 32 30 27 24 23 22 18 14 12 11 11 11 9 7 7 8 8 8 8 9 11 13 15 17 17 17 17 17 17 17 17 18 19 20 20 17 16 16 16 15 15 15 15 14 13 13 15 16 16 18 18 16 15 16 19 22 23 24 25 27 30
27 27 27 25 22 21 19 16 13 12 12 13 13 12 8 6 8 10 10 9 10 10 11 14 16 17 18 18 18 18 17 16 16 17 19 20 19 17 16 15 15 15 15 16 15 13 13 14 15 15 16 18 17 16 14 15 17 20 22 23 24 25 28
24 22 21 20 20 18 16 13 12 13 14 15 15 13 9 8 10 12 12 11 11 11 12 15 16 16 17 17 17 16 15 15 15 16 18 18 17 15 14 14 14 14 15 16 16 14 13 15 15 15 17 18 17 15 15 14 16 19 20 22 24 25 26
21 19 18 17 16 15 15 14 15 16 17 18 17 14 11 11 12 13 14 14 12 12 14 16 15 15 15 15 14 13 13 14 14 14 15 15 14 14 14 14 13 14 14 15 15 13 13 14 14 15 17 19 18 16 16 16 16 18 19 21 23 25 26
16 16 15 15 14 14 14 15 16 18 20 19 16 13 12 14 15 16 16 15 13 14 16 16 15 14 15 15 13 12 12 13 14 14 13 13 13 13 14 14 14 15 15 15 14 12 12 13 13 14 17 19 19 18 18 18 17 18 19 20 21 23 25
15 13 12 13 15 16 16 17 19 20 20 19 15 13 13 15 17 18 17 17 16 17 17 15 14 15 17 16 13 12 12 13 15 15 14 14 14 13 13 14 15 16 15 15 14 12 13 14 14 15 17 18 19 19 18 18 18 18 18 20 20 21 23
15 14 13 15 16 17 18 19 21 21 21 19 16 14 14 16 18 19 18 18 18 18 17 15 16 17 16 16 14 14 14 14 15 16 15 15 13 12 13 14 15 15 14 14 13 13 13 14 15 16 17 17 18 18 17 17 17 17 18 19 20 20 21
15 14 15 17 18 20 21 21 23 23 22 19 17 16 15 17 19 19 19 19 18 17 16 16 18 18 17 17 17 16 16 16 16 16 16 15 13 11 12 12 13 13 13 13 13 13 13 14 15 16 18 18 17 17 16 15 15 16 17 18 19 20 20
13 14 16 17 19 21 22 23 24 23 21 18 17 16 16 18 19 19 19 18 15 14 16 17 18 19 19 19 19 19 20 19 18 17 17 16 13 11 11 12 11 12 13 14 15 15 15 15 15 16 17 18 17 16 16 14 13 13 14 16 17 18 19
13 14 15 17 19 21 23 24 24 22 20 18 17 16 17 18 18 18 17 15 13 14 16 18 18 18 19 19 20 21 22 22 20 18 17 16 14 12 12 13 13 12 13 15 16 16 16 15 15 15 16 17 17 16 16 14 13 13 12 13 15 15 17
12 13 14 16 17 20 22 24 24 23 20 18 17 16 17 17 17 17 15 13 13 14 16 18 18 18 18 18 19 21 22 21 20 18 17 15 14 13 12 13 14 14 14 15 16 16 15 15 15 15 15 16 16 16 16 14 13 13 12 12 14 14 14
11 11 12 13 15 17 20 22 24 23 20 18 17 17 17 17 16 15 14 13 14 15 16 18 19 19 18 18 19 20 21 19 18 17 16 16 17 16 13 11 13 14 14 15 16 16 15 14 14 15 15 15 16 16 15 14 13 13 14 13 14 15 15
8 9 11 12 13 15 17 19 20 20 18 17 17 18 18 17 15 14 14 13 14 15 16 17 19 20 20 19 19 19 18 17 17 17 16 17 19 18 14 10 11 13 14 14 15 15 15 15 14 14 14 14 15 15 15 14 13 14 15 15 15 16 17
5 7 8 9 11 12 13 15 16 16 15 15 16 18 18 17 15 14 13 13 14 15 15 17 18 20 20 19 18 17 16 17 18 18 17 18 18 18 15 12 12 13 14 14 15 15 15 15 14 14 13 14 14 15 14 14 14 14 14 15 15 15 17
4 6 7 8 9 10 11 13 14 14 14 14 15 17 17 16 15 14 14 14 15 15 16 16 18 19 20 19 18 17 17 19 20 20 19 18 18 18 17 15 14 15 15 16 16 15 14 15 14 14 13 13 13 14 14 14 14 13 13 13 14 14 16
6 8 9 10 10 10 11 12 13 13 13 14 15 16 17 16 15 14 15 15 16 17 17 18 19 19 19 20 19 18 18 19 19 18 17 16 16 18 18 17 16 15 15 15 15 14 14 14 14 13 13 13 13 13 13 14 14 13 13 12 12 13 15
8 8 9 10 10 11 11 12 12 13 13 14 15 16 17 17 17 17 17 18 19 20 19 19 21 21 20 22 22 21 20 19 17 16 16 16 17 18 18 17 15 14 12 12 13 12 12 12 13 13 13 14 13 13 13 13 13 13 13 11 10 11 13
Wind_Direction
207 207 206 204 204 204 204 203 205 205 208 221 234 245 257 269 279 286 295 302 307 310 311 311 312 315 318 321 322 322 322 325 328 331 330 329 328 328 330 331 332 333 331 328 325 320 314 307 302 298 295 292 290 288 287 284 278 271 265 260 258 258 259
209 209 208 207 207 208 207 206 208 209 212 224 235 246 256 269 282 290 303 311 312 312 312 313 315 319 322 323 324 324 324 326 329 330 329 328 329 329 331 332 331 331 330 329 326 323 319 314 308 303 298 294 291 289 287 284 280 274 267 262 261 262 261
209 210 209 209 210 210 209 208 211 212 215 228 239 246 256 268 277 292 310 315 311 311 313 313 314 319 321 322 324 323 323 325 328 330 330 331 331 329 329 329 328 327 326 326 326 324 322 320 317 313 307 301 296 292 289 286 283 280 273 267 264 264 265
209 210 211 212 212 211 211 211 213 214 219 232 243 247 255 263 276 299 314 312 310 312 313 311 314 321 323 323 324 322 322 325 328 331 334 333 332 330 329 328 328 328 328 328 327 327 329 329 327 324 318 311 305 299 295 290 287 285 281 276 271 268 267
209 211 212 213 212 211 212 212 214 216 222 234 240 244 250 261 284 306 313 310 310 311 309 311 317 323 325 324 323 321 321 325 328 333 334 333 331 330 330 331 332 333 337 337 335 334 335 335 332 329 326 323 318 313 307 301 295 291 288 284 279 274 270
208 210 212 213 211 211 212 212 215 218 226 238 241 242 248 266 293 308 310 307 307 306 307 313 319 325 326 323 321 320 320 323 327 329 329 329 329 329 329 331 332 334 337 338 337 337 336 336 336 336 337 337 333 327 320 313 307 301 296 291 285 280 275
207 210 212 212 210 210 211 211 215 220 228 236 237 239 247 271 298 305 306 305 303 303 307 313 319 324 324 320 318 317 317 320 323 325 325 327 328 327 326 326 326 327 329 331 333 334 336 339 340 341 341 342 340 334 329 323 317 309 303 297 291 286 282
208 210 212 212 209 209 209 210 215 221 227 231 233 236 247 275 296 300 302 302 300 301 305 312 319 322 320 316 312 310 312 317 320 322 325 329 330 328 324 321 321 321 323 328 332 332 336 340 339 338 338 339 339 337 334 331 325 317 309 301 295 290 286
209 212 212 211 208 206 206 209 217 223 226 228 230 235 252 277 291 295 298 298 299 302 305 312 318 319 313 309 303 300 306 312 317 320 326 334 336 334 329 322 319 320 322 326 328 329 333 335 334 335 334 336 336 334 332 331 328 324 317 309 301 294 289
210 211 211 209 205 202 205 211 219 222 223 225 228 237 260 280 288 292 293 294 298 303 307 312 316 313 306 304 300 298 303 310 316 320 329 338 340 339 338 332 325 324 323 323 322 321 325 329 330 332 331 331 333 331 330 330 328 324 320 317 311 303 296
210 209 207 203 199 200 205 212 218 219 220 222 226 242 266 280 288 291 292 292 297 304 308 311 311 307 302 303 303 304 308 314 318 322 331 339 340 340 341 340 335 330 325 322 319 315 317 320 324 330 331 331 333 333 331 331 331 328 326 325 322 315 309
208 206 203 198 196 199 205 211 216 217 219 219 226 248 268 282 291 294 292 292 297 303 306 307 306 303 302 303 305 310 315 318 322 327 332 336 337 336 337 339 337 333 329 326 322 319 316 313 318 327 331 333 338 337 335 335 336 335 334 332 329 324 318
205 203 199 195 196 200 206 211 215 217 217 218 229 248 267 287 294 294 293 293 297 300 302 304 303 301 301 301 304 310 316 320 325 332 334 333 332 331 331 332 333 331 329 328 326 325 321 316 320 326 330 337 343 340 336 336 335 334 334 332 331 328 323
201 198 194 194 197 201 207 211 214 215 215 217 230 245 266 288 291 291 294 295 296 297 298 300 299 298 300 300 306 311 315 320 326 331 332 330 329 327 326 327 327 327 325 323 324 325 324 323 324 326 329 337 343 340 336 333 328 326 329 331 331 331 328
194 193 191 193 197 203 208 210 213 214 213 218 229 244 271 286 287 290 295 295 296 296 296 295 293 296 301 304 311 315 315 320 324 327 329 330 329 326 323 321 322 323 321 318 319 322 324 325 323 324 327 333 339 340 336 330 323 322 330 335 335 334 333
191 190 191 195 199 205 208 210 213 213 213 219 230 253 275 281 284 290 294 295 296 297 296 291 287 292 301 307 315 320 321 323 324 325 327 331 331 327 323 320 318 319 318 315 316 320 325 325 323 323 324 328 334 334 333 332 325 325 336 342 340 340 340
190 190 192 196 201 206 208 210 212 213 215 220 235 262 273 278 283 288 292 294 293 296 297 291 287 287 294 304 312 317 322 323 321 321 323 326 326 324 322 321 318 317 314 312 314 318 321 322 323 324 323 323 325 325 328 331 329 335 346 348 348 352 356
190 190 193 197 203 206 208 209 211 212 215 222 241 261 271 278 281 284 291 293 292 294 296 293 291 288 287 299 309 311 316 319 316 315 316 316 317 319 319 319 318 316 311 308 310 314 318 320 322 325 324 321 319 321 326 330 333 344 353 353 354 358 2
190 191 194 200 205 207 207 208 210 211 213 222 243 261 273 277 278 285 291 292 290 290 292 296 295 289 285 292 301 304 310 314 312 310 310 310 313 315 315 317 318 317 311 305 306 311 317 320 322 325 324 322 321 322 325 332 340 348 352 352 353 355 359
191 191 196 204 208 207 206 208 209 209 211 223 243 259 270 270 274 285 284 282 284 287 295 300 297 292 288 287 290 295 302 308 310 307 306 308 312 311 312 316 318 318 312 304 304 311 318 321 324 327 328 330 330 328 329 336 342 346 349 352 352 353 358
191 193 200 206 206 204 206 206 205 206 209 223 241 253 260 264 272 277 273 274 279 287 298 301 297 294 291 286 286 289 295 302 305 304 305 311 314 312 312 315 317 317 312 304 306 315 320 323 327 330 334 338 336 334 336 339 339 343 350 353 351 352 357
190 197 205 206 204 203 204 202 203 207 214 224 237 244 250 260 264 264 268 270 272 283 295 295 296 296 293 290 289 290 293 298 301 303 307 312 314 312 312 313 314 314 310 305 310 317 319 325 332 333 335 337 335 335 339 339 338 343 352 354 350 352 357
194 203 207 206 206 207 203 201 206 211 216 225 235 238 243 253 252 255 263 265 268 284 292 291 296 300 297 294 292 292 294 294 295 302 308 311 312 311 310 311 310 310 310 309 313 316 316 325 335 335 333 334 334 334 338 341 339 342 352 356 352 352 359
201 206 208 207 209 206 200 203 211 215 220 228 235 236 236 241 246 252 260 264 270 284 289 289 297 303 301 297 293 291 290 287 290 302 309 312 314 313 311 311 309 309 312 314 315 315 314 322 332 335 334 335 335 335 337 341 341 343 351 359 358 357 2
202 205 208 208 209 208 208 212 216 219 224 229 234 237 234 237 243 249 256 264 271 279 285 291 298 300 297 292 286 281 281 281 286 299 307 313 318 319 317 316 313 312 316 318 316 314 313 318 327 334 338 339 337 335 334 335 339 345 351 359 1 2 6
201 204 207 207 209 213 215 220 221 221 224 229 236 239 235 237 242 247 256 264 268 275 286 294 296 291 288 285 278 274 278 281 284 291 299 307 316 321 319 316 315 316 318 319 317 312 310 315 320 327 335 340 339 334 329 330 336 342 347 354 360 3 8
203 206 211 213 215 217 218 223 226 227 231 236 241 240 237 238 242 247 257 262 266 278 291 295 287 280 281 281 276 274 277 280 283 286 290 298 309 317 314 310 311 314 315 318 317 312 310 310 312 318 326 334 340 337 329 329 336 342 344 347 353 359 6
209 211 213 215 220 224 227 230 231 234 237 238 237 239 240 241 243 249 255 259 266 283 295 289 277 275 275 273 271 272 274 278 282 284 285 291 300 310 309 306 307 310 312 317 319 318 316 312 311 315 319 324 334 339 336 332 336 343 345 344 346 351 358
212 215 215 217 223 227 231 234 236 238 239 237 236 238 240 241 244 248 252 257 271 289 293 282 274 273 271 269 269 271 272 274 276 278 281 285 289 299 306 305 304 305 308 314 319 320 319 315 313 315 317 319 326 335 341 342 341 344 346 345 344 345 348
211 217 221 226 231 232 235 239 241 241 240 237 237 239 241 242 244 246 250 261 278 291 290 285 279 273 270 271 272 275 277 275 272 272 275 276 278 287 297 299 300 301 302 306 314 317 318 316 314 314 316 318 321 328 337 345 349 348 346 347 346 343 343
214 221 227 232 235 237 240 243 245 244 240 236 236 239 241 241 241 243 252 267 282 287 287 288 284 276 275 276 277 280 281 274 268 270 272 270 272 283 293 296 299 302 302 303 308 314 318 319 316 314 316 318 319 324 331 337 345 350 348 347 347 344 342
224 230 235 239 241 245 247 247 246 244 240 237 235 236 238 238 239 246 259 273 281 281 283 287 286 283 283 283 283 285 283 274 267 272 275 271 272 280 290 296 298 299 304 309 311 313 317 320 318 315 316 317 317 322 327 331 337 343 346 347 348 346 344
238 243 249 254 257 258 257 254 250 246 243 239 236 237 240 239 241 252 269 279 280 279 280 284 287 287 288 290 293 294 288 278 270 272 274 272 271 275 282 290 293 295 303 313 318 318 317 320 321 318 317 318 319 321 326 329 330 332 335 341 347 349 348
257 259 263 267 268 268 266 262 256 252 249 244 240 243 244 242 247 262 277 282 280 278 278 280 284 287 291 295 298 296 287 276 268 271 277 274 270 274 283 287 283 288 299 309 315 317 316 317 322 323 323 323 324 324 326 329 330 328 329 334 342 348 350
268 270 276 280 283 283 277 267 260 257 255 253 250 249 246 245 254 270 280 283 280 277 276 277 280 285 291 295 297 295 284 272 269 276 282 280 273 276 287 288 279 282 295 305 309 311 311 312 316 322 326 327 327 327 329 331 333 332 330 332 337 342 347
288 293 298 301 299 293 283 274 269 266 264 262 257 251 247 248 259 273 280 280 279 277 277 278 279 283 289 293 296 294 283 275 276 280 283 281 277 277 282 284 278 277 287 298 302 303 302 305 311 318 324 326 328 330 331 332 334 334 332 331 333 336 341
281 283 284 287 289 289 286 282 278 275 272 268 259 252 248 251 259 269 274 274 275 275 275 277 278 280 285 290 292 291 285 282 287 290 286 280 275 275 279 279 273 273 281 290 292 292 295 301 308 314 320 324 327 329 330 331 332 334 333 330 328 331 336
256 262 269 274 280 286 287 283 280 278 274 269 262 256 253 254 259 265 269 271 272 273 275 279 282 283 287 291 293 292 288 284 287 292 288 279 273 274 278 275 269 271 278 279 278 284 294 301 307 312 317 322 325 327 329 329 332 336 335 330 325 328 332